Location: Columbia
(38.9520°N, 92.3340°W)
Time: 09:53:16
(UTC-05:00)

Cosmos 1633 - Visible Passes

Search period start: 21 April 2014 00:00
Search period end: 01 May 2014 00:00
Orbit: 500 x 523 km, 82.5° (Epoch: 20 April)

Date Brightness Start Highest point End Pass type
(mag) Time Alt. Az. Time Alt. Az. Time Alt. Az.
24 Apr 6.1 00:03:11 10° N 00:03:12 10° N 00:03:12 10° N visible
24 Apr 5.9 23:46:51 10° N 23:47:02 11° N 23:47:02 11° N visible
25 Apr 5.7 23:30:31 10° N 23:30:52 12° N 23:30:52 12° N visible
26 Apr 5.6 23:14:14 10° NNE 23:14:41 13° NNE 23:14:41 13° NNE visible
27 Apr 5.4 22:57:58 10° NNE 22:58:30 13° NNE 22:58:30 13° NNE visible
28 Apr 5.3 22:41:45 10° NNE 22:42:17 13° NNE 22:42:17 13° NNE visible
29 Apr 6.0 00:17:09 10° NW 00:17:12 10° NW 00:17:12 10° NW visible
29 Apr 5.3 22:25:38 10° NNE 22:26:04 12° NE 22:26:04 12° NE visible
30 Apr 5.8 00:00:24 10° NNW 00:00:59 13° NW 00:00:59 13° NW visible
30 Apr 5.3 22:09:41 10° NE 22:09:50 10° NE 22:09:50 10° NE visible
30 Apr 5.5 23:43:42 10° NNW 23:44:46 17° NNW 23:44:46 17° NNW visible
